Valparaiso, IN

9:42 PM CDT on April 29, 2017 (GMT -0500)
Porter County Municipal

Weather History for KVPZ - January, 2014

Change the Weather History Date:

Sunday, January 12, 2014

  Actual Average Record
Temperature  
Mean Temperature 35 °F 23 °F  
Max Temperature 42 °F 31 °F 63 °F (2005)
Min Temperature 28 °F 16 °F 2 °F (2016)
Degree Days  
Heating Degree Days 30 42  
Month to date heating degree days 599 495  
Since 1 July heating degree days 3282 2897  
Cooling Degree Days 0 0  
Month to date cooling degree days 0 0  
Year to date cooling degree days 0 0  
Moisture  
Dew Point 28 °F    
Average Humidity 84    
Maximum Humidity 96    
Minimum Humidity 67    
Precipitation  
Precipitation 0.00 in 0.05 in 0.78 in (2005)
Month to date precipitation 0.89 0.65  
Year to date precipitation 0.89 0.65  
Sea Level Pressure  
Sea Level Pressure 29.82 in    
Wind  
Wind Speed 13 mph (SSW)    
Max Wind Speed 23 mph    
Max Gust Speed 31 mph    
Visibility 9 miles    
Events      
T = Trace of Precipitation, MM = Missing Value Source: NWS Daily Summary

Daily Weather History Graph

Daily Weather History Graph

Search for Another Location

Airport or City:

Trip Planner

Search our weather history database for the weather conditions in past years. The results will help you decide how hot, cold, wet, or windy it might be!

Date:

Astronomy

Jan. 12, 2014 Rise Set
Actual Time 7:13 AM CST 4:40 PM CST
Civil Twilight 6:42 AM CST 5:10 PM CST
Nautical Twilight 6:08 AM CST 5:45 PM CST
Astronomical Twilight 5:34 AM CST 6:18 PM CST
Moon 2:07 PM CST (1/12) 4:11 AM CST (1/12)
Length of Visible Light 10h 28m
Length of Day
9h 26m
Waxing Gibbous, 90% of the Moon is Illuminated
Jan 12
Waxing Gibbous
Jan 15
Full
Jan 23
Last Quarter
Jan 30
New
Feb 6
First Quarter

Hourly Weather History & Observations

Time (CST) Temp. Windchill Dew Point Humidity Pressure Visibility Wind Dir Wind Speed Gust Speed Precip Events Conditions
12:31 AM 30.9 °F 22.2 °F 28.0 °F 89% 29.79 in 10.0 mi West 10.4 mph - N/A   Overcast
12:53 AM 30.0 °F 19.5 °F 27.0 °F 88% 29.82 in 10.0 mi West 13.8 mph - N/A   Overcast
1:03 AM 30.0 °F 20.5 °F 27.0 °F 88% 29.81 in 10.0 mi West 11.5 mph - N/A   Overcast
1:24 AM 30.0 °F 19.1 °F 27.0 °F 88% 29.80 in 10.0 mi West 15.0 mph - N/A   Overcast
1:53 AM 30.0 °F 20.0 °F 27.0 °F 88% 29.85 in 9.0 mi West 12.7 mph - N/A   Overcast
2:53 AM 30.0 °F 20.5 °F 27.0 °F 88% 29.88 in 10.0 mi WSW 11.5 mph - N/A   Overcast
3:53 AM 28.9 °F 19.2 °F 26.1 °F 89% 29.88 in 10.0 mi West 11.5 mph - N/A   Overcast
4:53 AM 28.0 °F 18.1 °F 26.1 °F 92% 29.89 in 9.0 mi SW 11.5 mph - N/A   Overcast
5:25 AM 28.0 °F 18.1 °F 26.1 °F 92% 29.86 in 8.0 mi SW 11.5 mph - N/A   Overcast
5:53 AM 28.0 °F 18.1 °F 26.1 °F 92% 29.90 in 10.0 mi SW 11.5 mph - N/A   Overcast
6:53 AM 28.0 °F 17.0 °F 26.1 °F 92% 29.92 in 8.0 mi SW 13.8 mph - N/A   Overcast
7:53 AM 28.0 °F 17.5 °F 27.0 °F 96% 29.94 in 8.0 mi SSW 12.7 mph - N/A   Overcast
8:53 AM 28.0 °F 17.5 °F 27.0 °F 96% 29.94 in 7.0 mi South 12.7 mph - N/A   Overcast
9:53 AM 28.9 °F 19.8 °F 28.0 °F 96% 29.96 in 8.0 mi South 10.4 mph 20.7 mph N/A   Overcast
10:53 AM 30.0 °F 19.1 °F 28.0 °F 92% 29.94 in 7.0 mi South 15.0 mph - N/A   Overcast
11:53 AM 30.9 °F 20.2 °F 28.0 °F 89% 29.88 in 9.0 mi South 15.0 mph 23.0 mph N/A   Mostly Cloudy
12:14 PM 30.9 °F 19.8 °F 28.0 °F 89% 29.84 in 9.0 mi South 16.1 mph - N/A   Scattered Clouds
12:53 PM 32.0 °F 22.5 °F 28.0 °F 85% 29.84 in 9.0 mi South 12.7 mph 20.7 mph N/A   Unknown
1:53 PM 34.0 °F 23.8 °F 28.9 °F 82% 29.81 in 10.0 mi South 16.1 mph 24.2 mph N/A   Clear
2:53 PM 35.1 °F 25.9 °F 28.9 °F 78% 29.79 in 10.0 mi South 13.8 mph - N/A   Clear
3:53 PM 36.0 °F 26.7 °F 30.0 °F 79% 29.76 in 10.0 mi South 15.0 mph - N/A   Clear
4:53 PM 37.0 °F 29.3 °F 30.0 °F 76% 29.74 in 10.0 mi South 11.5 mph 21.9 mph N/A   Clear
5:53 PM 37.0 °F 28.1 °F 30.0 °F 76% 29.72 in 10.0 mi South 15.0 mph 25.3 mph N/A   Clear
6:53 PM 37.9 °F 29.2 °F 30.0 °F 73% 29.73 in 10.0 mi South 15.0 mph - N/A   Clear
7:53 PM 39.0 °F 31.0 °F 30.0 °F 70% 29.73 in 10.0 mi South 13.8 mph 20.7 mph N/A   Clear
8:53 PM 37.0 °F 30.4 °F 30.0 °F 76% 29.73 in 10.0 mi South 9.2 mph - N/A   Clear
9:53 PM 39.9 °F 32.1 °F 30.9 °F 70% 29.72 in 10.0 mi South 13.8 mph 24.2 mph N/A   Clear
10:53 PM 41.0 °F 32.5 °F 30.9 °F 67% 29.70 in 10.0 mi SSW 17.3 mph 31.1 mph N/A   Clear
11:53 PM 41.0 °F 32.8 °F 30.9 °F 67% 29.68 in 10.0 mi SSW 16.1 mph 28.8 mph N/A   Clear